Time,TemperatureF,DewpointF,PressureIn,WindDirection,WindDirectionDegrees,WindSpeedMPH,WindSpeedGustMPH,Humidity,HourlyPrecipIn,Conditions,Clouds,dailyrainin,SoftwareType,DateUTC
2013-03-31 00:03:00,-999.0,-99.9,30.01,South,190,2.0,2.0,-999,-99.99,,,-99.99,,2013-03-31 10:03:00,
2013-03-31 00:13:00,-999.0,-99.9,30.01,South,175,2.0,3.0,-999,-99.99,,,-99.99,,2013-03-31 10:13:00,
2013-03-31 00:24:00,-999.0,-99.9,30.01,SSE,165,2.0,3.0,-999,-99.99,,,-99.99,,2013-03-31 10:24:00,
2013-03-31 00:33:00,-999.0,-99.9,30.01,South,181,3.0,4.0,-999,-99.99,,,-99.99,,2013-03-31 10:33:00,
2013-03-31 00:42:00,-999.0,-99.9,30.01,SSW,195,3.0,4.0,-999,-99.99,,,-99.99,,2013-03-31 10:42:00,
2013-03-31 00:53:00,-999.0,-99.9,30.00,South,191,3.0,4.0,-999,-99.99,,,-99.99,,2013-03-31 10:53:00,
2013-03-31 01:03:00,-999.0,-99.9,30.00,SW,231,2.0,3.0,-999,-99.99,,,-99.99,,2013-03-31 11:03:00,
2013-03-31 01:12:00,-999.0,-99.9,30.00,SSW,211,2.0,3.0,-999,-99.99,,,-99.99,,2013-03-31 11:12:00,
2013-03-31 01:23:00,-999.0,-99.9,30.00,SSW,205,3.0,4.0,-999,-99.99,,,-99.99,,2013-03-31 11:23:00,
2013-03-31 01:33:00,-999.0,-99.9,29.99,SSW,193,3.0,4.0,-999,-99.99,,,-99.99,,2013-03-31 11:33:00,
2013-03-31 01:43:00,-999.0,-99.9,29.99,SSW,196,6.0,7.0,-999,-99.99,,,-99.99,,2013-03-31 11:43:00,
2013-03-31 01:53:00,-999.0,-99.9,29.98,SW,220,4.0,6.0,-999,-99.99,,,-99.99,,2013-03-31 11:53:00,
2013-03-31 02:03:00,-999.0,-99.9,29.98,SSW,210,4.0,6.0,-999,-99.99,,,-99.99,,2013-03-31 12:03:00,
2013-03-31 02:12:00,-999.0,-99.9,29.97,South,189,3.0,4.0,-999,-99.99,,,-99.99,,2013-03-31 12:12:00,
2013-03-31 02:22:00,-999.0,-99.9,29.97,SSW,205,2.0,3.0,-999,-99.99,,,-99.99,,2013-03-31 12:22:00,
2013-03-31 02:33:00,-999.0,-99.9,29.97,SW,226,2.0,3.0,-999,-99.99,,,-99.99,,2013-03-31 12:33:00,
2013-03-31 02:42:00,-999.0,-99.9,29.97,SW,233,3.0,4.0,-999,-99.99,,,-99.99,,2013-03-31 12:42:00,
2013-03-31 02:53:00,-999.0,-99.9,29.97,SW,224,4.0,4.0,-999,-99.99,,,-99.99,,2013-03-31 12:53:00,
2013-03-31 03:02:00,65.0,-99.9,29.97,SSW,195,3.0,3.0,-999,-99.99,,,-99.99,,2013-03-31 13:02:00,
2013-03-31 03:12:00,65.0,-99.9,29.96,South,185,3.0,4.0,-999,-99.99,,,-99.99,,2013-03-31 13:12:00,
2013-03-31 03:23:00,65.0,-99.9,29.96,South,184,4.0,4.0,-999,-99.99,,,-99.99,,2013-03-31 13:23:00,
2013-03-31 03:33:00,64.0,-99.9,29.96,South,188,3.0,4.0,-999,-99.99,,,-99.99,,2013-03-31 13:33:00,
2013-03-31 03:42:00,64.0,-99.9,29.96,South,187,4.0,5.0,-999,-99.99,,,-99.99,,2013-03-31 13:42:00,
2013-03-31 03:53:00,64.0,-99.9,29.96,SSW,200,4.0,5.0,-999,-99.99,,,-99.99,,2013-03-31 13:53:00,
2013-03-31 04:03:00,64.0,-99.9,29.96,SSW,194,3.0,4.0,-999,-99.99,,,-99.99,,2013-03-31 14:03:00,
2013-03-31 04:12:00,64.0,-99.9,29.96,South,181,2.0,4.0,-999,-99.99,,,-99.99,,2013-03-31 14:12:00,
2013-03-31 04:23:00,64.0,-99.9,29.96,SW,230,2.0,4.0,-999,-99.99,,,-99.99,,2013-03-31 14:23:00,
2013-03-31 04:33:00,66.0,-99.9,29.97,WNW,293,1.0,4.0,-999,-99.99,,,-99.99,,2013-03-31 14:33:00,
2013-03-31 04:43:00,67.0,-99.9,29.97,WNW,300,6.0,11.0,-999,-99.99,,,-99.99,,2013-03-31 14:43:00,
2013-03-31 04:53:00,67.0,-99.9,29.97,WSW,249,5.0,9.0,-999,-99.99,,,-99.99,,2013-03-31 14:53:00,
2013-03-31 05:03:00,66.0,-99.9,29.97,West,261,6.0,8.0,-999,-99.99,,,-99.99,,2013-03-31 15:03:00,
2013-03-31 05:13:00,66.0,-99.9,29.97,West,280,6.0,7.0,-999,-99.99,,,-99.99,,2013-03-31 15:13:00,
2013-03-31 05:23:00,67.0,-99.9,29.98,West,271,2.0,4.0,-999,-99.99,,,-99.99,,2013-03-31 15:23:00,
2013-03-31 05:34:00,68.0,-99.9,29.98,NW,317,6.0,9.0,-999,-99.99,,,-99.99,,2013-03-31 15:34:00,
2013-03-31 05:44:00,70.0,-99.9,29.98,NNW,334,14.0,16.0,-999,-99.99,,,-99.99,,2013-03-31 15:44:00,
2013-03-31 05:54:00,68.0,-99.9,29.98,WNW,283,8.0,18.0,-999,-99.99,,,-99.99,,2013-03-31 15:54:00,
2013-03-31 06:03:00,66.0,-99.9,29.99,West,263,6.0,9.0,-999,-99.99,,,-99.99,,2013-03-31 16:03:00,
2013-03-31 06:13:00,66.0,-99.9,29.99,West,270,6.0,10.0,-999,-99.99,,,-99.99,,2013-03-31 16:13:00,
2013-03-31 06:23:00,66.0,-99.9,29.99,WSW,253,5.0,6.0,-999,-99.99,,,-99.99,,2013-03-31 16:23:00,
2013-03-31 06:34:00,67.0,-99.9,30.00,West,278,4.0,5.0,-999,-99.99,,,-99.99,,2013-03-31 16:34:00,
2013-03-31 06:43:00,-999.0,-99.9,30.00,NW,315,7.0,8.0,-999,-99.99,,,-99.99,,2013-03-31 16:43:00,
2013-03-31 06:54:00,69.0,-99.9,30.00,WNW,296,7.0,10.0,-999,-99.99,,,-99.99,,2013-03-31 16:54:00,
2013-03-31 07:03:00,67.0,-99.9,30.00,SSW,201,2.0,7.0,-999,-99.99,,,-99.99,,2013-03-31 17:03:00,
2013-03-31 07:13:00,65.0,-99.9,30.00,South,183,5.0,7.0,-999,-99.99,,,-99.99,,2013-03-31 17:13:00,
2013-03-31 07:23:00,-999.0,-99.9,30.01,South,179,4.0,6.0,-999,-99.99,,,-99.99,,2013-03-31 17:23:00,
2013-03-31 07:33:00,65.0,-99.9,30.01,South,173,2.0,4.0,-999,-99.99,,,-99.99,,2013-03-31 17:33:00,
2013-03-31 07:43:00,-999.0,-99.9,30.01,SSW,212,1.0,3.0,-999,-99.99,,,-99.99,,2013-03-31 17:43:00,
2013-03-31 07:52:00,-999.0,-99.9,30.01,North,1,1.0,4.0,-999,-99.99,,,-99.99,,2013-03-31 17:52:00,
2013-03-31 08:03:00,67.0,-99.9,30.02,SSE,152,4.0,6.0,-999,-99.99,,,-99.99,,2013-03-31 18:03:00,
2013-03-31 08:13:00,-999.0,-99.9,30.02,NW,322,4.0,8.0,-999,-99.99,,,-99.99,,2013-03-31 18:13:00,
2013-03-31 08:22:00,-999.0,-99.9,30.02,NNW,346,21.0,24.0,-999,-99.99,,,-99.99,,2013-03-31 18:22:00,
2013-03-31 08:33:00,-999.0,-99.9,30.02,NNW,346,21.0,24.0,-999,-99.99,,,-99.99,,2013-03-31 18:33:00,
2013-03-31 08:43:00,70.0,-99.9,30.03,North,359,26.0,28.0,-999,-99.99,,,-99.99,,2013-03-31 18:43:00,
2013-03-31 08:53:00,-999.0,-99.9,30.03,North,1,26.0,30.0,-999,-99.99,,,-99.99,,2013-03-31 18:53:00,
2013-03-31 09:03:00,-999.0,-99.9,30.03,North,4,30.0,37.0,-999,-99.99,,,-99.99,,2013-03-31 19:03:00,
2013-03-31 09:12:00,-999.0,-99.9,30.04,North,353,24.0,32.0,-999,-99.99,,,-99.99,,2013-03-31 19:12:00,
2013-03-31 09:22:00,-999.0,-99.9,30.04,North,4,26.0,29.0,-999,-99.99,,,-99.99,,2013-03-31 19:22:00,
2013-03-31 09:33:00,69.0,-99.9,30.04,North,3,26.0,31.0,-999,-99.99,,,-99.99,,2013-03-31 19:33:00,
2013-03-31 09:43:00,68.0,-99.9,30.04,North,6,27.0,32.0,-999,-99.99,,,-99.99,,2013-03-31 19:43:00,
2013-03-31 09:54:00,-999.0,-99.9,30.04,North,4,26.0,32.0,-999,-99.99,,,-99.99,,2013-03-31 19:54:00,
2013-03-31 10:03:00,-999.0,-99.9,30.04,North,8,26.0,31.0,-999,-99.99,,,-99.99,,2013-03-31 20:03:00,
2013-03-31 10:13:00,-999.0,-99.9,30.04,North,6,26.0,29.0,-999,-99.99,,,-99.99,,2013-03-31 20:13:00,
2013-03-31 10:23:00,-999.0,-99.9,30.04,North,7,27.0,31.0,-999,-99.99,,,-99.99,,2013-03-31 20:23:00,
2013-03-31 10:34:00,69.0,-99.9,30.04,North,7,27.0,30.0,-999,-99.99,,,-99.99,,2013-03-31 20:34:00,
2013-03-31 10:43:00,-999.0,-99.9,30.03,North,7,28.0,31.0,-999,-99.99,,,-99.99,,2013-03-31 20:43:00,
2013-03-31 10:53:00,-999.0,-99.9,30.03,NNE,12,25.0,29.0,-999,-99.99,,,-99.99,,2013-03-31 20:53:00,
2013-03-31 11:03:00,70.0,-99.9,30.02,NNE,14,24.0,27.0,-999,-99.99,,,-99.99,,2013-03-31 21:03:00,
2013-03-31 11:13:00,-999.0,-99.9,30.02,North,9,25.0,27.0,-999,-99.99,,,-99.99,,2013-03-31 21:13:00,
2013-03-31 11:22:00,-999.0,-99.9,30.02,North,10,22.0,26.0,-999,-99.99,,,-99.99,,2013-03-31 21:22:00,
2013-03-31 11:34:00,72.0,-99.9,30.02,North,5,24.0,28.0,-999,-99.99,,,-99.99,,2013-03-31 21:34:00,
2013-03-31 11:44:00,72.0,-99.9,30.01,North,10,25.0,27.0,-999,-99.99,,,-99.99,,2013-03-31 21:44:00,
2013-03-31 11:54:00,72.0,-99.9,30.01,North,4,25.0,28.0,-999,-99.99,,,-99.99,,2013-03-31 21:54:00,
2013-03-31 12:13:00,71.0,-99.9,30.01,North,7,24.0,28.0,-999,-99.99,,,-99.99,,2013-03-31 22:13:00,
2013-03-31 12:24:00,72.0,-99.9,30.01,North,7,25.0,28.0,-999,-99.99,,,-99.99,,2013-03-31 22:24:00,
2013-03-31 12:33:00,72.0,-99.9,30.01,North,10,24.0,26.0,-999,-99.99,,,-99.99,,2013-03-31 22:33:00,
2013-03-31 12:43:00,72.0,-99.9,30.01,North,10,26.0,28.0,-999,-99.99,,,-99.99,,2013-03-31 22:43:00,
2013-03-31 12:53:00,72.0,-99.9,30.00,North,10,26.0,29.0,-999,-99.99,,,-99.99,,2013-03-31 22:53:00,
2013-03-31 13:03:00,72.0,-99.9,30.00,North,8,25.0,30.0,-999,-99.99,,,-99.99,,2013-03-31 23:03:00,
2013-03-31 13:13:00,72.0,-99.9,30.00,NNE,15,25.0,27.0,-999,-99.99,,,-99.99,,2013-03-31 23:13:00,
2013-03-31 13:23:00,72.0,-99.9,29.99,North,9,27.0,30.0,-999,-99.99,,,-99.99,,2013-03-31 23:23:00,
2013-03-31 13:33:00,72.0,-99.9,29.98,North,11,30.0,33.0,-999,-99.99,,,-99.99,,2013-03-31 23:33:00,
2013-03-31 13:43:00,72.0,-99.9,29.98,North,7,28.0,34.0,-999,-99.99,,,-99.99,,2013-03-31 23:43:00,
2013-03-31 13:54:00,72.0,-99.9,29.98,North,10,29.0,34.0,-999,-99.99,,,-99.99,,2013-03-31 23:54:00,
2013-03-31 14:03:00,72.0,-99.9,29.97,North,6,27.0,32.0,-999,-99.99,,,-99.99,,2013-04-01 00:03:00,
2013-03-31 14:13:00,72.0,-99.9,29.97,North,10,28.0,31.0,-999,-99.99,,,-99.99,,2013-04-01 00:13:00,
2013-03-31 14:23:00,71.0,-99.9,29.97,North,7,28.0,33.0,-999,-99.99,,,-99.99,,2013-04-01 00:23:00,
2013-03-31 14:33:00,71.0,-99.9,29.96,North,6,28.0,31.0,-999,-99.99,,,-99.99,,2013-04-01 00:33:00,
2013-03-31 14:43:00,71.0,-99.9,29.96,North,5,27.0,32.0,-999,-99.99,,,-99.99,,2013-04-01 00:43:00,
2013-03-31 14:53:00,71.0,-99.9,29.96,North,7,27.0,31.0,-999,-99.99,,,-99.99,,2013-04-01 00:53:00,
2013-03-31 15:03:00,72.0,-99.9,29.96,North,355,24.0,27.0,-999,-99.99,,,-99.99,,2013-04-01 01:03:00,
2013-03-31 15:13:00,71.0,-99.9,29.95,North,1,28.0,33.0,-999,-99.99,,,-99.99,,2013-04-01 01:13:00,
2013-03-31 15:23:00,71.0,-99.9,29.95,North,7,28.0,31.0,-999,-99.99,,,-99.99,,2013-04-01 01:23:00,
2013-03-31 15:33:00,-999.0,-99.9,29.96,North,8,26.0,31.0,-999,-99.99,,,-99.99,,2013-04-01 01:33:00,
2013-03-31 15:43:00,-999.0,-99.9,29.95,North,357,26.0,28.0,-999,-99.99,,,-99.99,,2013-04-01 01:43:00,
2013-03-31 15:53:00,-999.0,-99.9,29.95,NNW,348,26.0,31.0,-999,-99.99,,,-99.99,,2013-04-01 01:53:00,
2013-03-31 16:03:00,-999.0,-99.9,29.95,North,351,26.0,31.0,-999,-99.99,,,-99.99,,2013-04-01 02:03:00,
2013-03-31 16:13:00,71.0,-99.9,29.95,North,360,27.0,28.0,-999,-99.99,,,-99.99,,2013-04-01 02:13:00,
2013-03-31 16:23:00,71.0,-99.9,29.95,North,1,25.0,30.0,-999,-99.99,,,-99.99,,2013-04-01 02:23:00,
2013-03-31 16:33:00,71.0,-99.9,29.95,North,356,24.0,29.0,-999,-99.99,,,-99.99,,2013-04-01 02:33:00,
2013-03-31 16:43:00,-999.0,-99.9,29.95,North,354,22.0,27.0,-999,-99.99,,,-99.99,,2013-04-01 02:43:00,
2013-03-31 16:53:00,-999.0,-99.9,29.95,North,353,23.0,25.0,-999,-99.99,,,-99.99,,2013-04-01 02:53:00,
2013-03-31 17:03:00,-999.0,-99.9,29.94,North,349,23.0,27.0,-999,-99.99,,,-99.99,,2013-04-01 03:03:00,
2013-03-31 17:12:00,-999.0,-99.9,29.94,North,356,23.0,24.0,-999,-99.99,,,-99.99,,2013-04-01 03:12:00,
2013-03-31 17:23:00,-999.0,-99.9,29.94,North,360,23.0,28.0,-999,-99.99,,,-99.99,,2013-04-01 03:23:00,
2013-03-31 17:35:00,-999.0,-99.9,29.94,ENE,68,8.0,27.0,-999,-99.99,,,-99.99,,2013-04-01 03:35:00,
2013-03-31 17:43:00,-999.0,-99.9,29.94,North,349,21.0,25.0,-999,-99.99,,,-99.99,,2013-04-01 03:43:00,
2013-03-31 17:53:00,71.0,-99.9,29.94,NNW,348,20.0,25.0,-999,-99.99,,,-99.99,,2013-04-01 03:53:00,
2013-03-31 18:03:00,-999.0,-99.9,29.95,NNW,348,20.0,24.0,-999,-99.99,,,-99.99,,2013-04-01 04:03:00,
2013-03-31 18:14:00,-999.0,-99.9,29.95,NNW,340,19.0,22.0,-999,-99.99,,,-99.99,,2013-04-01 04:14:00,
2013-03-31 18:24:00,-999.0,-99.9,29.95,NNW,346,17.0,21.0,-999,-99.99,,,-99.99,,2013-04-01 04:24:00,
2013-03-31 18:33:00,-999.0,-99.9,29.95,NNW,348,20.0,22.0,-999,-99.99,,,-99.99,,2013-04-01 04:33:00,
2013-03-31 18:44:00,-999.0,-99.9,29.95,North,351,19.0,22.0,-999,-99.99,,,-99.99,,2013-04-01 04:44:00,
2013-03-31 18:53:00,-999.0,-99.9,29.95,North,351,18.0,23.0,-999,-99.99,,,-99.99,,2013-04-01 04:53:00,
2013-03-31 19:03:00,-999.0,-99.9,29.96,North,349,18.0,22.0,-999,-99.99,,,-99.99,,2013-04-01 05:03:00,
2013-03-31 19:13:00,-999.0,-99.9,29.96,NNW,341,18.0,22.0,-999,-99.99,,,-99.99,,2013-04-01 05:13:00,
2013-03-31 19:23:00,71.0,-99.9,29.97,NNW,343,17.0,22.0,-999,-99.99,,,-99.99,,2013-04-01 05:23:00,
2013-03-31 19:33:00,-999.0,-99.9,29.97,NNW,343,17.0,22.0,-999,-99.99,,,-99.99,,2013-04-01 05:33:00,
2013-03-31 19:43:00,-999.0,-99.9,29.97,NNW,337,17.0,19.0,-999,-99.99,,,-99.99,,2013-04-01 05:43:00,
2013-03-31 19:53:00,71.0,-99.9,29.97,NNW,342,15.0,19.0,-999,-99.99,,,-99.99,,2013-04-01 05:53:00,
2013-03-31 20:02:00,71.0,-99.9,29.98,NW,325,15.0,18.0,-999,-99.99,,,-99.99,,2013-04-01 06:02:00,
2013-03-31 20:13:00,70.0,-99.9,29.98,NW,323,13.0,17.0,-999,-99.99,,,-99.99,,2013-04-01 06:13:00,
2013-03-31 20:23:00,70.0,-99.9,29.98,NW,323,10.0,13.0,-999,-99.99,,,-99.99,,2013-04-01 06:23:00,
2013-03-31 20:34:00,71.0,-99.9,29.99,NNW,336,10.0,13.0,-999,-99.99,,,-99.99,,2013-04-01 06:34:00,
2013-03-31 20:43:00,70.0,-99.9,29.99,NNW,343,14.0,16.0,-999,-99.99,,,-99.99,,2013-04-01 06:43:00,
2013-03-31 20:53:00,70.0,-99.9,29.99,NNW,336,12.0,16.0,-999,-99.99,,,-99.99,,2013-04-01 06:53:00,
2013-03-31 21:03:00,70.0,-99.9,29.99,NNW,331,13.0,16.0,-999,-99.99,,,-99.99,,2013-04-01 07:03:00,
2013-03-31 21:13:00,70.0,-99.9,29.99,NNW,340,13.0,15.0,-999,-99.99,,,-99.99,,2013-04-01 07:13:00,
2013-03-31 21:22:00,70.0,-99.9,29.99,NNW,336,13.0,16.0,-999,-99.99,,,-99.99,,2013-04-01 07:22:00,
2013-03-31 21:32:00,70.0,-99.9,30.00,NNW,335,12.0,17.0,-999,-99.99,,,-99.99,,2013-04-01 07:32:00,
2013-03-31 21:43:00,70.0,-99.9,30.00,NNW,333,13.0,16.0,-999,-99.99,,,-99.99,,2013-04-01 07:43:00,
2013-03-31 21:53:00,70.0,-99.9,30.00,NNW,334,11.0,15.0,-999,-99.99,,,-99.99,,2013-04-01 07:53:00,
2013-03-31 22:03:00,70.0,-99.9,30.00,NNW,339,12.0,14.0,-999,-99.99,,,-99.99,,2013-04-01 08:03:00,
2013-03-31 22:13:00,70.0,-99.9,30.01,NNW,341,11.0,13.0,-999,-99.99,,,-99.99,,2013-04-01 08:13:00,
2013-03-31 22:22:00,70.0,-99.9,30.01,NNW,336,12.0,16.0,-999,-99.99,,,-99.99,,2013-04-01 08:22:00,
2013-03-31 22:32:00,70.0,-99.9,30.01,NNW,342,13.0,17.0,-999,-99.99,,,-99.99,,2013-04-01 08:32:00,
2013-03-31 22:43:00,70.0,-99.9,30.01,NNW,338,12.0,13.0,-999,-99.99,,,-99.99,,2013-04-01 08:43:00,
2013-03-31 22:53:00,70.0,-99.9,30.01,NNW,337,11.0,14.0,-999,-99.99,,,-99.99,,2013-04-01 08:53:00,
2013-03-31 23:03:00,-999.0,-99.9,30.01,NNW,334,11.0,13.0,-999,-99.99,,,-99.99,,2013-04-01 09:03:00,
2013-03-31 23:12:00,70.0,-99.9,30.00,NNW,336,10.0,12.0,-999,-99.99,,,-99.99,,2013-04-01 09:12:00,
2013-03-31 23:23:00,70.0,-99.9,30.01,NNW,331,10.0,12.0,-999,-99.99,,,-99.99,,2013-04-01 09:23:00,
2013-03-31 23:33:00,70.0,-99.9,30.00,NNW,344,13.0,14.0,-999,-99.99,,,-99.99,,2013-04-01 09:33:00,
2013-03-31 23:43:00,-999.0,-99.9,30.00,NNW,343,13.0,15.0,-999,-99.99,,,-99.99,,2013-04-01 09:43:00,
2013-03-31 23:54:00,70.0,-99.9,30.00,NNW,346,14.0,17.0,-999,-99.99,,,-99.99,,2013-04-01 09:54:00,